Find Starlink 32815

NORAD ID: 62956 Int'l Des: 2025-029 Owner: SPXS Country: US Constellation: starlink operational
LEOCIRCULAR

Live Position

Loading 3D Globe...

About Starlink 32815

Description loading...

Upcoming Passes

Passes for default location (London). Set your location on the main map for personalized predictions.

Altitude History

Loading altitude history...

Two-Line Element Set

1 62956U 25029J 26125.79949285 .00024266 00000-0 82831-3 0 9990
2 62956 53.1616 324.8977 0000428 99.6819 260.4230 15.30216710 70109
Epoch: May 5, 2026 • Age: 7 hours

Current Status

Altitude 479.8 km
Velocity 7.63 km/s
Sub-Earth Point 46.28°N, 160.96°W
Launch Date Feb 11, 2025
Age 1.2 years
Type internet

Technical Details

Classification Payload
Mass 730.00 kg
Dry Mass 700.00 kg
Total Mass 730.00 kg
Length 0.30 m
Diameter 4.10 m
Span 29.00 m
Shape Box + pan
Manufacturer SPXS
Bus Type Starlink V2M
Phase Status In Orbit
Owner/State SPXS/US

Most Searched